Weather History for Durant, OK

Change the Weather History Date:

Monday, November 11, 2013

  Actual Average (KADM) Record (KADM)
Temperature  
Mean Temperature 60 °F -  
Max Temperature 75 °F 61 °F 84 °F (2007)
Min Temperature 44 °F 44 °F 32 °F (2011)
Degree Days  
Heating Degree Days 6    
Growing Degree Days 10 (Base 50)    
Moisture  
Dew Point 50 °F    
Average Humidity 72    
Maximum Humidity 94    
Minimum Humidity 44    
Precipitation  
Precipitation 0.00 in - - ()
Sea Level Pressure  
Sea Level Pressure 30.25 in    
Wind  
Wind Speed 2 mph (SW)    
Max Wind Speed 12 mph    
Max Gust Speed -    
Visibility 10 miles    
Events      
Averages and records for this station are not official NWS values.
T = Trace of Precipitation, MM = Missing Value Source: NWS Daily Summary

Daily Weather History Graph

Daily Weather History Graph

Search for Another Location

Airport:

Trip Planner

Search our weather history database for the weather conditions in past years. The results will help you decide how hot, cold, wet, or windy it might be!

Date:

Astronomy

Nov. 11, 2013 Rise Set
Actual Time 6:54 AM CST 5:24 PM CST
Civil Twilight 6:28 AM CST 5:50 PM CST
Nautical Twilight 5:58 AM CST 6:20 PM CST
Astronomical Twilight 5:28 AM CST 6:50 PM CST
Moon 1:51 PM CST (11/11) 12:57 AM CST (11/11)
Length of Visible Light 11h 22m
Length of Day
10h 30m
Waxing Gibbous, 66% of the Moon is Illuminated
Nov 11
Waxing Gibbous
Nov 17
Full
Nov 25
Last Quarter
Dec 2
New
Dec 9
First Quarter

Hourly Weather History & Observations

Time (CST) Temp. Windchill Dew Point Humidity Pressure Visibility Wind Dir Wind Speed Gust Speed Precip Events Conditions
12:15 AM 48.2 °F - 42.8 °F 82% 30.27 in 10.0 mi Calm Calm - N/A   Clear
12:35 AM 46.4 °F - 42.8 °F 87% 30.27 in 10.0 mi Calm Calm - N/A   Clear
12:55 AM 46.4 °F - 42.8 °F 87% 30.27 in 10.0 mi Calm Calm - N/A   Clear
1:15 AM 46.4 °F - 42.8 °F 87% 30.27 in 10.0 mi Calm Calm - N/A   Clear
1:35 AM 46.4 °F - 42.8 °F 87% 30.26 in 10.0 mi Calm Calm - N/A   Clear
1:55 AM 46.4 °F - 42.8 °F 87% 30.26 in 10.0 mi Calm Calm - N/A   Clear
2:15 AM 46.4 °F - 42.8 °F 87% 30.26 in 10.0 mi Calm Calm - N/A   Clear
2:35 AM 46.4 °F - 42.8 °F 87% 30.25 in 10.0 mi Calm Calm - N/A   Clear
2:55 AM 46.4 °F - 42.8 °F 87% 30.25 in 10.0 mi Calm Calm - N/A   Clear
3:15 AM 46.4 °F - 42.8 °F 87% 30.25 in 10.0 mi Calm Calm - N/A   Clear
3:35 AM 46.4 °F 45.2 °F 42.8 °F 87% 30.25 in 10.0 mi East 3.5 mph - N/A   Clear
3:55 AM 44.6 °F - 42.8 °F 93% 30.25 in 10.0 mi Calm Calm - N/A   Clear
4:15 AM 44.6 °F - 42.8 °F 93% 30.25 in 10.0 mi Calm Calm - N/A   Clear
4:35 AM 44.6 °F - 42.8 °F 93% 30.25 in 10.0 mi Calm Calm - N/A   Scattered Clouds
4:55 AM 46.4 °F - 44.6 °F 93% 30.26 in 10.0 mi Calm Calm - N/A   Overcast
5:15 AM 48.2 °F - 44.6 °F 87% 30.25 in 10.0 mi Calm Calm - N/A   Overcast
5:35 AM 50.0 °F - 44.6 °F 82% 30.26 in 10.0 mi Calm Calm - N/A   Overcast
5:55 AM 50.0 °F - 46.4 °F 87% 30.26 in 10.0 mi Calm Calm - N/A   Overcast
6:15 AM 50.0 °F - 46.4 °F 87% 30.27 in 10.0 mi Calm Calm - N/A   Overcast
6:35 AM 50.0 °F - 46.4 °F 87% 30.27 in 10.0 mi Calm Calm - N/A   Overcast
6:55 AM 50.0 °F - 46.4 °F 87% 30.28 in 10.0 mi Calm Calm - N/A   Overcast
7:15 AM 51.8 °F - 48.2 °F 88% 30.28 in 10.0 mi ESE 3.5 mph - N/A   Overcast
7:35 AM 51.8 °F - 48.2 °F 88% 30.28 in 10.0 mi SE 3.5 mph - N/A   Overcast
7:55 AM 51.8 °F - 50.0 °F 94% 30.28 in 10.0 mi SE 3.5 mph - N/A   Overcast
8:15 AM 51.8 °F - 50.0 °F 94% 30.28 in 10.0 mi SE 3.5 mph - N/A   Mostly Cloudy
8:35 AM 53.6 °F - 50.0 °F 88% 30.28 in 10.0 mi SE 4.6 mph - N/A   Scattered Clouds
8:55 AM 55.4 °F - 50.0 °F 82% 30.28 in 10.0 mi SSE 3.5 mph - N/A   Clear
9:15 AM 59.0 °F - 50.0 °F 72% 30.28 in 10.0 mi South 4.6 mph - N/A   Clear
9:35 AM 60.8 °F - 51.8 °F 72% 30.28 in 10.0 mi South 5.8 mph - N/A   Clear
9:55 AM 62.6 °F - 51.8 °F 68% 30.28 in 10.0 mi South 4.6 mph - N/A   Clear
10:15 AM 64.4 °F - 50.0 °F 59% 30.27 in 10.0 mi SW 6.9 mph - N/A   Clear
10:35 AM 66.2 °F - 48.2 °F 52% 30.28 in 10.0 mi SSW 6.9 mph - N/A   Clear
10:55 AM 68.0 °F - 46.4 °F 46% 30.27 in 10.0 mi SW 6.9 mph - N/A   Clear
11:15 AM 69.8 °F - 50.0 °F 49% 30.27 in 10.0 mi South 9.2 mph - N/A   Clear
11:35 AM 69.8 °F - 50.0 °F 49% 30.27 in 10.0 mi WSW 5.8 mph - N/A   Clear
11:55 AM 71.6 °F - 50.0 °F 46% 30.25 in 10.0 mi SSW 5.8 mph - N/A   Clear
12:15 PM 71.6 °F - 50.0 °F 46% 30.25 in 10.0 mi SW 4.6 mph - N/A   Clear
12:35 PM 73.4 °F - 51.8 °F 47% 30.23 in 10.0 mi SW 8.1 mph - N/A   Clear
12:55 PM 71.6 °F - 51.8 °F 50% 30.22 in 10.0 mi SSW 5.8 mph - N/A   Clear
1:15 PM 73.4 °F - 51.8 °F 47% 30.20 in 10.0 mi SSW 4.6 mph - N/A   Clear
1:35 PM 73.4 °F - 51.8 °F 47% 30.20 in 10.0 mi West 4.6 mph - N/A   Clear
1:55 PM 73.4 °F - 51.8 °F 47% 30.20 in 10.0 mi SSW 8.1 mph - N/A   Scattered Clouds
2:15 PM 73.4 °F - 51.8 °F 47% 30.19 in 10.0 mi SW 6.9 mph - N/A   Scattered Clouds
2:35 PM 73.4 °F - 51.8 °F 47% 30.19 in 10.0 mi SSW 5.8 mph - N/A   Scattered Clouds
2:55 PM 75.2 °F - 51.8 °F 44% 30.19 in 10.0 mi WSW 6.9 mph - N/A   Scattered Clouds
3:15 PM 73.4 °F - 51.8 °F 47% 30.18 in 10.0 mi SW 5.8 mph - N/A   Clear
3:35 PM 73.4 °F - 51.8 °F 47% 30.19 in 10.0 mi Calm Calm - N/A   Clear
3:55 PM 73.4 °F - 51.8 °F 47% 30.18 in 10.0 mi West 4.6 mph - N/A   Scattered Clouds
4:15 PM 73.4 °F - 51.8 °F 47% 30.19 in 10.0 mi West 4.6 mph - N/A   Clear
4:35 PM 71.6 °F - 51.8 °F 50% 30.19 in 10.0 mi West 3.5 mph - N/A   Clear
4:55 PM 71.6 °F - 53.6 °F 53% 30.19 in 10.0 mi Calm Calm - N/A   Clear
5:15 PM 69.8 °F - 53.6 °F 56% 30.20 in 10.0 mi WNW 4.6 mph - N/A   Clear
5:35 PM 68.0 °F - 53.6 °F 60% 30.20 in 10.0 mi Calm Calm - N/A   Clear
5:55 PM 64.4 °F - 53.6 °F 68% 30.20 in 10.0 mi Calm Calm - N/A   Clear
6:15 PM 64.4 °F - 53.6 °F 68% 30.21 in 10.0 mi Calm Calm - N/A   Clear
6:35 PM 62.6 °F - 53.6 °F 72% 30.22 in 10.0 mi Calm Calm - N/A   Clear
6:55 PM 60.8 °F - 53.6 °F 77% 30.22 in 10.0 mi Calm Calm - N/A   Mostly Cloudy
7:15 PM 60.8 °F - 53.6 °F 77% 30.22 in 10.0 mi Calm Calm - N/A   Overcast
7:35 PM 59.0 °F - 53.6 °F 82% 30.23 in 10.0 mi Calm Calm - N/A   Overcast
7:55 PM 60.8 °F - 53.6 °F 77% 30.23 in 10.0 mi Calm Calm - N/A   Overcast
8:15 PM 62.6 °F - 55.4 °F 77% 30.24 in 10.0 mi Calm Calm - N/A   Overcast
8:35 PM 60.8 °F - 55.4 °F 82% 30.24 in 10.0 mi Calm Calm - N/A   Mostly Cloudy
8:55 PM 60.8 °F - 55.4 °F 82% 30.25 in 10.0 mi Calm Calm - N/A   Overcast
9:15 PM 60.8 °F - 55.4 °F 82% 30.25 in 10.0 mi Calm Calm - N/A   Overcast
9:35 PM 60.8 °F - 53.6 °F 77% 30.26 in 10.0 mi WSW 4.6 mph - N/A   Scattered Clouds
9:55 PM 60.8 °F - 53.6 °F 77% 30.27 in 10.0 mi West 3.5 mph - N/A   Clear
10:15 PM 59.0 °F - 53.6 °F 82% 30.27 in 10.0 mi Calm Calm - N/A   Mostly Cloudy
10:35 PM 59.0 °F - 53.6 °F 82% 30.28 in 10.0 mi Calm Calm - N/A   Mostly Cloudy
10:55 PM 60.8 °F - 53.6 °F 77% 30.29 in 10.0 mi WNW 4.6 mph - N/A   Mostly Cloudy
11:15 PM 62.6 °F - 55.4 °F 77% 30.29 in 10.0 mi NW 6.9 mph - N/A   Overcast
11:35 PM 62.6 °F - 55.4 °F 77% 30.30 in 10.0 mi NNW 8.1 mph - N/A   Overcast
11:55 PM 62.6 °F - 55.4 °F 77% 30.30 in 10.0 mi NNW 11.5 mph - N/A   Overcast